When you browse on this site, cookies collect data to enhance your experience and personalize the content and advertising you see.
Visit our Privacy Policy to learn more. By continuing to use the site, you agree to this use of cookies and data.
  • en France
  • Liste des pays
  • À 7 jours
  • Température de l'eau
  • Carte météo
  • Widgets météo
  • user-avatar
    Se connecter

    Météo par heure à Xiancun

    Ce jour, 15 Septembre, Dimanche

    Heure Température Précipitation Vent Pression Humidité
    00:00 +23°C° 0 mm 0 m/s 737 mmHg 96%
    01:00 +23°C° 0 mm 0 m/s 737 mmHg 96%
    02:00 +23°C° 0 mm 0 m/s 736 mmHg 95%
    03:00 +23°C° 0 mm 0 m/s 736 mmHg 95%
    04:00 +23°C° 0 mm 0 m/s 736 mmHg 96%
    05:00 +22°C° 0 mm 0 m/s 736 mmHg 96%
    06:00 +24°C° 0 mm 0 m/s 737 mmHg 91%
    07:00 +25°C° 0 mm 0 m/s 737 mmHg 87%
    08:00 +29°C° 0 mm 1 m/s 737 mmHg 83%
    09:00 +30°C° 0 mm 1 m/s 737 mmHg 74%
    10:00 +32°C° 0 mm 1 m/s 737 mmHg 66%
    11:00 +34°C° 0 mm 2 m/s 737 mmHg 57%
    12:00 +34°C° 0.1 mm 2 m/s 737 mmHg 58%
    13:00 +34°C° 0.1 mm 2 m/s 736 mmHg 60%
    14:00 +34°C° 0.1 mm 2 m/s 735 mmHg 61%
    15:00 +32°C° 0.2 mm 2 m/s 735 mmHg 68%
    16:00 +31°C° 0.2 mm 2 m/s 735 mmHg 75%
    17:00 +30°C° 0.2 mm 1 m/s 735 mmHg 82%
    18:00 +28°C° 0 mm 1 m/s 735 mmHg 87%
    19:00 +27°C° 0 mm 1 m/s 736 mmHg 91%
    20:00 +23°C° 0 mm 0 m/s 736 mmHg 96%
    21:00 +23°C° 0 mm 0 m/s 736 mmHg 96%
    22:00 +23°C° 0 mm 0 m/s 736 mmHg 96%
    23:00 +23°C° 0 mm 0 m/s 737 mmHg 96%

    Demain, 16 Septembre, Lundi

    Heure Température Précipitation Vent Pression Humidité
    00:00 +23°C° 0 mm 0 m/s 736 mmHg 96%
    01:00 +23°C° 0 mm 0 m/s 736 mmHg 97%
    02:00 +22°C° 0 mm 0 m/s 736 mmHg 97%
    03:00 +22°C° 0 mm 0 m/s 736 mmHg 97%
    04:00 +22°C° 0 mm 0 m/s 736 mmHg 96%
    05:00 +22°C° 0 mm 0 m/s 736 mmHg 96%
    06:00 +24°C° 0 mm 0 m/s 736 mmHg 92%
    07:00 +25°C° 0 mm 0 m/s 737 mmHg 88%
    08:00 +27°C° 0 mm 0 m/s 737 mmHg 83%
    09:00 +30°C° 0.1 mm 1 m/s 737 mmHg 77%
    10:00 +31°C° 0.1 mm 1 m/s 737 mmHg 71%
    11:00 +33°C° 0.1 mm 1 m/s 737 mmHg 65%
    12:00 +34°C° 0.2 mm 2 m/s 736 mmHg 64%
    13:00 +34°C° 0.2 mm 2 m/s 736 mmHg 63%
    14:00 +34°C° 0.2 mm 2 m/s 735 mmHg 63%
    15:00 +31°C° 0.1 mm 2 m/s 735 mmHg 69%
    16:00 +30°C° 0.1 mm 2 m/s 735 mmHg 75%
    17:00 +29°C° 0.1 mm 2 m/s 735 mmHg 82%
    18:00 +27°C° 0 mm 2 m/s 736 mmHg 86%
    19:00 +26°C° 0 mm 1 m/s 736 mmHg 91%
    20:00 +24°C° 0 mm 1 m/s 736 mmHg 95%
    21:00 +22°C° 0 mm 0 m/s 737 mmHg 94%
    22:00 +22°C° 0 mm 0 m/s 737 mmHg 94%
    23:00 +22°C° 0 mm 0 m/s 737 mmHg 93%

    Après-demain, 17 Septembre, Mardi

    Heure Température Précipitation Vent Pression Humidité
    00:00 +21°C° 0 mm 0 m/s 737 mmHg 93%
    01:00 +21°C° 0 mm 0 m/s 737 mmHg 93%
    02:00 +20°C° 0 mm 0 m/s 736 mmHg 93%
    03:00 +20°C° 0 mm 0 m/s 737 mmHg 92%
    04:00 +20°C° 0 mm 0 m/s 737 mmHg 91%
    05:00 +19°C° 0 mm 0 m/s 737 mmHg 90%
    06:00 +21°C° 0 mm 0 m/s 738 mmHg 83%
    07:00 +23°C° 0 mm 0 m/s 738 mmHg 76%
    08:00 +24°C° 0 mm 0 m/s 738 mmHg 69%
    09:00 +28°C° 0 mm 1 m/s 738 mmHg 59%
    10:00 +30°C° 0 mm 1 m/s 738 mmHg 48%
    11:00 +32°C° 0 mm 1 m/s 738 mmHg 38%
    12:00 +32°C° 0 mm 1 m/s 738 mmHg 38%
    13:00 +34°C° 0 mm 2 m/s 737 mmHg 39%
    14:00 +34°C° 0 mm 2 m/s 737 mmHg 40%
    15:00 +32°C° 0 mm 2 m/s 737 mmHg 49%
    16:00 +30°C° 0 mm 2 m/s 737 mmHg 58%
    17:00 +29°C° 0 mm 1 m/s 737 mmHg 67%
    18:00 +27°C° 0 mm 1 m/s 737 mmHg 75%
    19:00 +25°C° 0 mm 1 m/s 738 mmHg 82%
    20:00 +21°C° 0 mm 0 m/s 738 mmHg 90%
    21:00 +21°C° 0 mm 0 m/s 739 mmHg 91%
    22:00 +21°C° 0 mm 0 m/s 739 mmHg 92%
    23:00 +20°C° 0 mm 0 m/s 739 mmHg 93%

    18 Septembre, Mercredi

    Heure Température Précipitation Vent Pression Humidité
    00:00 +20°C° 0 mm 0 m/s 739 mmHg 94%
    01:00 +20°C° 0 mm 0 m/s 739 mmHg 94%
    02:00 +22°C° 0 mm 1 m/s 738 mmHg 94%
    03:00 +22°C° 0 mm 1 m/s 738 mmHg 94%
    04:00 +22°C° 0 mm 1 m/s 738 mmHg 93%
    05:00 +21°C° 0 mm 1 m/s 739 mmHg 93%
    06:00 +23°C° 0 mm 1 m/s 739 mmHg 85%
    07:00 +25°C° 0 mm 1 m/s 739 mmHg 77%
    08:00 +26°C° 0 mm 1 m/s 740 mmHg 70%
    09:00 +28°C° 0 mm 2 m/s 740 mmHg 63%
    10:00 +29°C° 0 mm 2 m/s 740 mmHg 56%
    11:00 +30°C° 0 mm 3 m/s 740 mmHg 49%
    12:00 +31°C° 0 mm 3 m/s 739 mmHg 49%
    13:00 +31°C° 0 mm 3 m/s 739 mmHg 49%
    14:00 +33°C° 0 mm 4 m/s 739 mmHg 49%
    15:00 +30°C° 0 mm 3 m/s 739 mmHg 55%
    16:00 +29°C° 0 mm 3 m/s 739 mmHg 60%
    17:00 +28°C° 0 mm 3 m/s 739 mmHg 66%
    18:00 +27°C° 0 mm 2 m/s 739 mmHg 71%
    19:00 +25°C° 0 mm 2 m/s 740 mmHg 75%
    20:00 +23°C° 0 mm 1 m/s 740 mmHg 79%
    21:00 +23°C° 0 mm 1 m/s 740 mmHg 81%
    22:00 +22°C° 0 mm 1 m/s 740 mmHg 82%
    23:00 +22°C° 0 mm 1 m/s 740 mmHg 83%

    19 Septembre, Jeudi

    Heure Température Précipitation Vent Pression Humidité
    00:00 +21°C° 0 mm 1 m/s 740 mmHg 82%
    01:00 +21°C° 0 mm 1 m/s 739 mmHg 80%
    02:00 +20°C° 0 mm 1 m/s 739 mmHg 79%
    03:00 +20°C° 0 mm 1 m/s 739 mmHg 75%
    04:00 +20°C° 0 mm 1 m/s 739 mmHg 71%
    05:00 +19°C° 0 mm 1 m/s 739 mmHg 67%
    06:00 +21°C° 0 mm 1 m/s 739 mmHg 63%
    07:00 +23°C° 0 mm 1 m/s 740 mmHg 59%
    08:00 +24°C° 0 mm 1 m/s 740 mmHg 55%
    09:00 +26°C° 0 mm 1 m/s 740 mmHg 49%
    10:00 +28°C° 0 mm 2 m/s 740 mmHg 43%
    11:00 +29°C° 0 mm 2 m/s 740 mmHg 36%
    12:00 +30°C° 0 mm 2 m/s 739 mmHg 36%
    13:00 +30°C° 0 mm 3 m/s 739 mmHg 36%
    14:00 +31°C° 0 mm 3 m/s 738 mmHg 36%
    15:00 +29°C° 0 mm 2 m/s 738 mmHg 44%
    16:00 +28°C° 0 mm 2 m/s 738 mmHg 51%
    17:00 +27°C° 0 mm 2 m/s 738 mmHg 59%
    18:00 +25°C° 0 mm 1 m/s 738 mmHg 65%
    19:00 +23°C° 0 mm 1 m/s 738 mmHg 71%
    20:00 +21°C° 0 mm 1 m/s 738 mmHg 77%
    21:00 +21°C° 0 mm 1 m/s 738 mmHg 78%
    22:00 +21°C° 0 mm 1 m/s 738 mmHg 79%
    23:00 +20°C° 0 mm 1 m/s 738 mmHg 80%

    20 Septembre, Vendredi

    Heure Température Précipitation Vent Pression Humidité
    00:00 +20°C° 0 mm 1 m/s 738 mmHg 81%
    01:00 +19°C° 0 mm 1 m/s 738 mmHg 82%
    02:00 +19°C° 0 mm 1 m/s 738 mmHg 83%
    03:00 +19°C° 0 mm 1 m/s 737 mmHg 83%
    04:00 +18°C° 0 mm 1 m/s 737 mmHg 83%
    05:00 +18°C° 0 mm 1 m/s 737 mmHg 83%
    06:00 +20°C° 0 mm 1 m/s 738 mmHg 75%
    07:00 +22°C° 0 mm 1 m/s 738 mmHg 67%
    08:00 +24°C° 0 mm 1 m/s 738 mmHg 60%
    09:00 +26°C° 0 mm 1 m/s 738 mmHg 50%
    10:00 +28°C° 0 mm 1 m/s 738 mmHg 40%
    11:00 +30°C° 0 mm 2 m/s 738 mmHg 31%
    12:00 +30°C° 0 mm 2 m/s 737 mmHg 31%
    13:00 +30°C° 0 mm 2 m/s 737 mmHg 32%
    14:00 +31°C° 0 mm 2 m/s 736 mmHg 32%
    15:00 +29°C° 0 mm 2 m/s 736 mmHg 40%
    16:00 +28°C° 0 mm 2 m/s 736 mmHg 48%
    17:00 +27°C° 0 mm 1 m/s 736 mmHg 56%
    18:00 +25°C° 0 mm 1 m/s 736 mmHg 61%
    19:00 +23°C° 0 mm 1 m/s 737 mmHg 66%
    20:00 +21°C° 0 mm 1 m/s 737 mmHg 71%
    21:00 +21°C° 0 mm 1 m/s 737 mmHg 73%
    22:00 +20°C° 0 mm 1 m/s 737 mmHg 74%
    23:00 +20°C° 0 mm 1 m/s 738 mmHg 76%
    Voir plus